Weather History for KVLD - June, 2014

Change the Weather History Date:

Monday, June 23, 2014

  Actual Average Record
Temperature  
Mean Temperature 82 °F 80 °F  
Max Temperature 90 °F 91 °F 102 °F (2011)
Min Temperature 74 °F 70 °F 66 °F (2005)
Cooling Degree Days 17 15  
Month to date cooling degree days 412 322  
Year to date cooling degree days 1015 734  
Since 1 June cooling degree days 412 322  
Growing Degree Days 32 (Base 50)    
Moisture  
Dew Point 72 °F    
Average Humidity 73    
Maximum Humidity 87    
Minimum Humidity 59    
Precipitation  
Precipitation 0.10 in 0.20 in 0.62 in (2000)
Month to date precipitation 2.04 4.90  
Year to date precipitation 25.31 23.90  
Sea Level Pressure  
Sea Level Pressure 30.02 in    
Wind  
Wind Speed 2 mph (South)    
Max Wind Speed 17 mph    
Max Gust Speed 21 mph    
Visibility 8 miles    
Events Rain , Thunderstorm    
T = Trace of Precipitation, MM = Missing Value Source: NWS Daily Summary

Daily Weather History Graph

Daily Weather History Graph

Search for Another Location

Airport or City:

Trip Planner

Search our weather history database for the weather conditions in past years. The results will help you decide how hot, cold, wet, or windy it might be!

Date:

Astronomy

Jun. 23, 2014 Rise Set
Actual Time 6:31 AM EDT 8:39 PM EDT
Civil Twilight 6:03 AM EDT 9:07 PM EDT
Nautical Twilight 5:29 AM EDT 9:41 PM EDT
Astronomical Twilight 4:53 AM EDT 10:17 PM EDT
Moon 3:45 AM EDT (6/23) 5:28 PM EDT (6/23)
Length of Visible Light 15h 04m
Length of Day
14h 08m
Waning Crescent, 13% of the Moon is Illuminated
Jun 23
Waning Crescent
Jun 27
New
Jul 5
First Quarter
Jul 12
Full
Jul 18
Last Quarter

Hourly Weather History & Observations

Time (EDT) Temp. Heat Index Dew Point Humidity Pressure Visibility Wind Dir Wind Speed Gust Speed Precip Events Conditions
12:53 AM 77.0 °F - 71.1 °F 82% 29.97 in 9.0 mi Calm Calm - 0.00 in   Scattered Clouds
1:53 AM 75.9 °F - 71.1 °F 85% 29.97 in 7.0 mi Calm Calm - N/A   Clear
2:53 AM 75.9 °F - 71.1 °F 85% 29.96 in 8.0 mi Calm Calm - 0.01 in   Clear
3:53 AM 75.9 °F - 71.1 °F 85% 29.96 in 8.0 mi Calm Calm - N/A   Partly Cloudy
4:37 AM 77.0 °F - 71.6 °F 83% 29.95 in 9.0 mi Calm Calm - N/A   Mostly Cloudy
4:53 AM 77.0 °F - 71.1 °F 82% 29.97 in 9.0 mi Calm Calm - N/A   Mostly Cloudy
5:00 AM 77.0 °F - 71.6 °F 83% 29.96 in 8.0 mi South 5.8 mph - N/A   Scattered Clouds
5:13 AM 77.0 °F - 71.6 °F 83% 29.96 in 7.0 mi South 3.5 mph - N/A   Mostly Cloudy
5:26 AM 75.2 °F - 71.6 °F 89% 29.95 in 8.0 mi Calm Calm - N/A   Scattered Clouds
5:53 AM 75.9 °F - 71.1 °F 85% 29.98 in 8.0 mi Calm Calm - N/A   Partly Cloudy
6:53 AM 75.9 °F - 71.1 °F 85% 29.99 in 7.0 mi Calm Calm - N/A   Clear
7:53 AM 78.1 °F - 72.0 °F 81% 30.01 in 8.0 mi Calm Calm - N/A   Clear
8:53 AM 78.1 °F - 72.0 °F 81% 30.03 in 8.0 mi Calm Calm - N/A   Haze
9:53 AM 82.0 °F 86.7 °F 72.0 °F 71% 30.04 in 10.0 mi Calm Calm - N/A   Haze
10:53 AM 84.0 °F 89.0 °F 71.1 °F 65% 30.06 in 10.0 mi Calm Calm - N/A   Haze
11:53 AM 88.0 °F 94.7 °F 72.0 °F 59% 30.06 in 10.0 mi NE 3.5 mph - N/A   Haze
12:53 PM 86.0 °F 93.0 °F 73.0 °F 65% 30.06 in 10.0 mi SSE 6.9 mph - N/A   Haze
1:53 PM 90.0 °F 97.9 °F 73.0 °F 57% 30.05 in 10.0 mi SSE 5.8 mph - N/A   Haze
2:30 PM 82.4 °F 86.3 °F 69.8 °F 66% 30.04 in 10.0 mi South 12.7 mph - N/A   Overcast
2:38 PM 82.4 °F 86.3 °F 69.8 °F 66% 30.04 in 10.0 mi South 11.5 mph - N/A Thunderstorm Overcast
3:02 PM 78.8 °F - 71.6 °F 78% 30.03 in 3.0 mi South 6.9 mph - 0.02 in Rain Light Rain
3:53 PM 78.1 °F - 72.0 °F 81% 30.06 in 5.0 mi South 4.6 mph - 0.04 in Rain Light Rain
4:42 PM 78.8 °F - 73.4 °F 83% 30.04 in 10.0 mi SSW 3.5 mph - 0.01 in Rain Light Rain
6:53 PM 80.1 °F 83.8 °F 72.0 °F 76% 30.01 in 10.0 mi Variable 3.5 mph - N/A   Scattered Clouds
7:53 PM 79.0 °F - 72.0 °F 79% 30.04 in 10.0 mi Calm Calm - N/A   Mostly Cloudy
8:53 PM 78.1 °F - 72.0 °F 81% 30.06 in 10.0 mi Calm Calm - N/A   Mostly Cloudy
9:53 PM 77.0 °F - 72.0 °F 84% 30.08 in 9.0 mi Calm Calm - N/A   Clear
10:53 PM 75.9 °F - 71.1 °F 85% 30.11 in 7.0 mi Calm Calm - N/A   Clear
11:53 PM 75.0 °F - 70.0 °F 84% 30.11 in 4.0 mi Calm Calm - N/A   Haze